Weather in Valmiera

Latvia     57°31′57″N   25°25′17″E
В апреле 2022 года жителям России запретили посещать сайт meteo.paraplan.net по решению Генеральной прокуратуры. Аудитория сайта уменьшилась в 10 раз. Владельцы сайта не видят смысла в поддержке погодного сервера в таких условиях. Сайт будет закрыт в октябре.
temp.,
°C
wind,
m/s
gust,
m/s
humid.,
%
clouds,
%
prec.,
mm/h
press.,
hPa
HPBL,
m
6 october, thu
thu600:00+11sw4118923 0.0 1012511
03:00+10ssw4129617 0.0 1012411
06:00+10ssw413922 0.0 1010435
09:00+11ssw515835 0.0 1009589
12:00+13sw61577100 0.0 1009838
15:00+14w8157723 0.4 10101468
18:00+12w714779 0.4 10131294
21:00+11wsw7148031 0.5 10151174
7 october, fri
fri700:00+12wsw7157848 0.0 10171170
03:00+11wsw7147955 0.0 10171094
06:00+11wsw7148372 0.0 10181040
09:00+12wsw61281100 0.1 10191113
12:00+14wsw6107330 0.1 10201192
15:00+14wsw6116792 0.2 10191264
18:00+13sw41177100 0.1 1018938
21:00+11ssw5127837 0.1 1018678
8 october, sat
sat800:00+10ssw5147186 0.0 1017627
03:00+9ssw5147257 0.0 1015485
06:00+9ssw51573100 0.0 1013476
09:00+9ssw51573100 0.0 1011542
12:00+13ssw6136598 0.0 1010784
15:00+15sw61257100 0.0 10091212
18:00+13sw51066100 0.0 10081001
21:00+11wsw41091100 2.6 1009647
9 october, sun
sun900:00+10sw3988100 1.6 1010412
03:00+8sw39979 1.6 1011281
06:00+7sw410976 0.0 1011325
09:00+8wsw411949 0.1 1013604
12:00+12w47690 0.1 10151131
15:00+13w57585 0.1 10171411
18:00+10w37735 0.0 1018255
21:00+7sw38925 0.0 1019181
10 october, mon
mon1000:00+7sw4119162 0.0 1020361
03:00+7sw4119399 0.0 1019389
06:00+8sw41293100 0.0 1019462
09:00+8ssw41290100 0.0 1019546
12:00+11ssw51267100 0.0 1018791
15:00+13ssw61360100 0.0 1016891
18:00+11ssw61560100 0.0 1014918
21:00+11ssw7166299 0.0 1012938